Weather History for Stuart, FL

Change the Weather History Date:

Thursday, November 15, 2012

  Actual Average Record
Temperature  
Mean Temperature 70 °F -  
Max Temperature 77 °F 78 °F 89 °F (1986)
Min Temperature 62 °F 61 °F 40 °F (1975)
Cooling Degree Days 6    
Growing Degree Days 20 (Base 50)    
Moisture  
Dew Point 64 °F    
Average Humidity 90    
Maximum Humidity 100    
Minimum Humidity 78    
Precipitation  
Precipitation 0.10 in - - ()
Sea Level Pressure  
Sea Level Pressure 30.09 in    
Wind  
Wind Speed 4 mph (NNW)    
Max Wind Speed 14 mph    
Max Gust Speed 16 mph    
Visibility 8 miles    
Events Rain    
Averages and records for this station are not official NWS values.
T = Trace of Precipitation, MM = Missing Value Source: NWS Daily Summary

Daily Weather History Graph

Daily Weather History Graph

Search for Another Location

Airport:

Trip Planner

Search our weather history database for the weather conditions in past years. The results will help you decide how hot, cold, wet, or windy it might be!

Date:

Astronomy

Nov. 15, 2012 Rise Set
Actual Time 6:41 AM EST 5:29 PM EST
Civil Twilight 6:16 AM EST 5:54 PM EST
Nautical Twilight 5:48 AM EST 6:22 PM EST
Astronomical Twilight 5:20 AM EST 6:49 PM EST
Moon 8:29 AM EST (11/15) 7:24 PM EST (11/15)
Length of Visible Light 11h 37m
Length of Day
10h 48m
Waxing Crescent, 5% of the Moon is Illuminated
Nov 15
Waxing Crescent
Nov 20
First Quarter
Nov 28
Full
Dec 6
Last Quarter
Dec 13
New

Hourly Weather History & Observations

Time (EST) Temp. Dew Point Humidity Pressure Visibility Wind Dir Wind Speed Gust Speed Precip Events Conditions
12:15 AM 64.4 °F 64.4 °F 100% 30.11 in 10.0 mi WNW 4.6 mph - N/A   Scattered Clouds
12:35 AM 66.2 °F 64.4 °F 94% 30.10 in 10.0 mi WNW 5.8 mph - N/A   Mostly Cloudy
12:55 AM 68.0 °F 64.4 °F 88% 30.10 in 10.0 mi Calm Calm - N/A   Overcast
1:15 AM 68.0 °F 64.4 °F 88% 30.10 in 10.0 mi Calm Calm - N/A   Mostly Cloudy
1:35 AM 68.0 °F 64.4 °F 88% 30.09 in 10.0 mi WNW 3.5 mph - N/A   Overcast
1:55 AM 66.2 °F 64.4 °F 94% 30.08 in 7.0 mi WNW 3.5 mph - N/A   Mostly Cloudy
2:15 AM 66.2 °F 64.4 °F 94% 30.08 in 7.0 mi Calm Calm - N/A   Mostly Cloudy
2:35 AM 68.0 °F 66.2 °F 94% 30.08 in 10.0 mi NW 5.8 mph - 0.01 in Rain Light Rain
2:55 AM 68.0 °F 66.2 °F 94% 30.07 in 5.0 mi NW 6.9 mph - 0.10 in Rain Light Rain
3:15 AM 68.0 °F 66.2 °F 94% 30.07 in 10.0 mi Calm Calm - N/A   Overcast
3:35 AM 68.0 °F 66.2 °F 94% 30.07 in 10.0 mi Calm Calm - N/A   Mostly Cloudy
3:55 AM 68.0 °F 64.4 °F 88% 30.07 in 10.0 mi Calm Calm - N/A   Scattered Clouds
4:15 AM 66.2 °F 64.4 °F 94% 30.07 in 7.0 mi Calm Calm - N/A   Scattered Clouds
4:35 AM 68.0 °F 64.4 °F 88% 30.07 in 10.0 mi Calm Calm - N/A   Clear
4:55 AM 64.4 °F 64.4 °F 100% 30.07 in 1.2 mi West 3.5 mph - N/A   Mist
5:15 AM 64.4 °F 62.6 °F 94% 30.07 in 7.0 mi WNW 3.5 mph - N/A   Mostly Cloudy
6:47 AM 64.4 °F 64.4 °F 100% 30.07 in 7.0 mi Calm Calm - N/A   Scattered Clouds
6:50 AM 64.4 °F 62.6 °F 94% 30.12 in 0.5 mi NW 4.6 mph - N/A   Overcast
7:47 AM 66.2 °F 66.2 °F 100% 30.10 in 5.0 mi Calm Calm - N/A   Scattered Clouds
9:47 AM 75.2 °F 68.0 °F 78% 30.12 in 7.0 mi NNW 4.6 mph - N/A   Scattered Clouds
12:47 PM 77.0 °F 69.8 °F 78% 30.09 in 7.0 mi NNE 11.5 mph - N/A   Mostly Cloudy
2:55 PM 75.2 °F 68.0 °F 78% 30.07 in 7.0 mi North 11.5 mph 16.1 mph N/A   Scattered Clouds
3:47 PM 73.4 °F 66.2 °F 78% 30.07 in 7.0 mi North 13.8 mph - N/A   Scattered Clouds
5:47 PM 71.6 °F 66.2 °F 83% 30.08 in 7.0 mi North 9.2 mph 16.1 mph N/A   Mostly Cloudy
6:47 PM 69.8 °F 64.4 °F 83% 30.10 in 7.0 mi North 9.2 mph 16.1 mph N/A   Mostly Cloudy
7:15 PM 69.8 °F 64.4 °F 83% 30.10 in 10.0 mi North 9.2 mph - N/A   Clear
7:35 PM 69.8 °F 62.6 °F 78% 30.10 in 10.0 mi North 6.9 mph - N/A   Clear
7:55 PM 68.0 °F 64.4 °F 88% 30.11 in 10.0 mi North 5.8 mph - N/A   Clear
8:15 PM 68.0 °F 64.4 °F 88% 30.11 in 10.0 mi North 9.2 mph - N/A   Clear
8:35 PM 68.0 °F 64.4 °F 88% 30.12 in 10.0 mi NNW 5.8 mph - N/A   Clear
8:55 PM 68.0 °F 64.4 °F 88% 30.12 in 10.0 mi NNW 5.8 mph - N/A   Clear
9:15 PM 66.2 °F 62.6 °F 88% 30.12 in 10.0 mi NNW 8.1 mph - N/A   Clear
9:35 PM 66.2 °F 62.6 °F 88% 30.12 in 10.0 mi NNW 5.8 mph - N/A   Clear
9:55 PM 66.2 °F 62.6 °F 88% 30.11 in 10.0 mi NNW 6.9 mph - N/A   Clear
10:15 PM 64.4 °F 62.6 °F 94% 30.11 in 10.0 mi NNW 8.1 mph - N/A   Clear
10:35 PM 64.4 °F 62.6 °F 94% 30.11 in 10.0 mi NNW 6.9 mph - N/A   Clear
10:55 PM 64.4 °F 62.6 °F 94% 30.11 in 10.0 mi NNW 8.1 mph - N/A   Clear
11:15 PM 64.4 °F 62.6 °F 94% 30.11 in 10.0 mi NNW 6.9 mph - N/A   Clear
11:35 PM 64.4 °F 62.6 °F 94% 30.11 in 10.0 mi NW 6.9 mph - N/A   Clear
11:55 PM 62.6 °F 60.8 °F 94% 30.10 in 10.0 mi NNW 8.1 mph - N/A   Clear